{"data":{"norad_id":64591,"intl_designator":"2025-135BR","name":"AE2A","alt_names":[],"object_type":"PAYLOAD","status":"ACTIVE","operator":null,"country":"JPN","launch_date":"2025-06-23","launch_site_code":"AFWTR","launch_vehicle":null,"mission":null,"orbit_class":"UNKNOWN","rcs_meters":null,"size_class":null,"mass_kg":null,"dimensions":null,"purposes":[],"wikipedia_slug":null,"has_3d_model":false,"image_url":null,"decayed_at":null,"tle_current":{"epoch":"2026-05-25T05:29:54.394656Z","epoch_age_seconds":54990,"freshness":"FRESH","line1":"1 64591U 25135BR  26145.22910179  .00003814  00000+0  33743-3 0  9998","line2":"2 64591  97.7659 260.6021 0006239  57.9120 302.2706 14.96878647 50523","mean_motion":14.96878647,"eccentricity":0.0006239,"inclination_deg":97.7659,"raan_deg":260.6021,"arg_perigee_deg":57.912,"mean_anomaly_deg":302.2706,"bstar":0.00033743,"rev_number":5052,"period_min":96.200183153525,"perigee_km":572.20867860124,"apogee_km":580.88673417787,"semimajor_km":6954.6847063896,"source":"CELESTRAK","updated_at":"2026-05-25T13:38:04.657011Z"}}}